Total_Precipitation_Accumulation
0.77 0.71 0.59 0.62 0.57 0.60 0.67 0.70 0.73 0.73 0.77 0.76 0.75 0.76 0.78 0.75 0.68 0.66 0.81 1.00 1.39 1.57 1.39 1.15 0.95 0.85 0.84 0.84 0.86 1.04 1.24 1.39 1.40 1.45 1.54 1.66 1.55 1.40 1.38 1.26 1.26 1.24 1.12
0.71 0.74 0.69 0.70 0.71 0.69 0.69 0.69 0.67 0.78 0.82 0.80 0.79 0.79 0.79 0.70 0.69 0.77 0.91 0.97 1.00 1.21 1.52 1.49 1.31 1.11 0.99 0.90 0.89 1.00 1.17 1.30 1.28 1.37 1.44 1.51 1.43 1.24 1.17 1.21 1.36 1.17 0.97
0.68 0.74 0.77 0.77 0.79 0.80 0.79 0.80 0.80 0.86 0.83 0.84 0.85 0.80 0.75 0.69 0.69 0.77 0.81 0.87 0.72 0.67 0.98 1.36 1.50 1.37 1.27 1.17 1.03 1.05 1.13 1.27 1.22 1.33 1.42 1.46 1.32 1.19 1.08 1.17 1.28 1.12 0.93
0.71 0.79 0.81 0.85 0.92 0.84 0.80 0.87 0.92 0.97 0.92 0.94 0.95 0.83 0.70 0.73 0.72 0.76 0.85 0.86 0.81 0.64 0.67 0.78 0.96 1.11 1.36 1.49 1.30 1.24 1.21 1.20 1.14 1.28 1.38 1.36 1.23 1.15 1.07 1.15 1.15 1.07 0.98
0.88 0.96 1.00 1.03 1.06 1.07 0.99 0.89 0.91 0.97 1.04 1.05 0.97 0.90 0.77 0.76 0.80 0.81 0.98 0.98 0.89 0.78 0.76 0.61 0.58 0.67 0.90 1.23 1.33 1.40 1.33 1.20 1.11 1.16 1.23 1.13 1.16 1.11 0.99 1.01 1.01 0.95 0.92
1.16 1.26 1.24 1.20 1.26 1.35 1.36 1.15 1.19 1.13 1.08 1.14 1.05 0.97 0.92 0.87 0.88 0.94 0.98 1.03 1.06 0.92 0.89 0.73 0.62 0.46 0.54 0.81 1.10 1.41 1.49 1.39 1.20 1.16 1.19 1.01 1.00 1.04 0.89 0.82 0.86 0.87 0.83
1.50 1.66 1.62 1.60 1.61 1.59 1.55 1.48 1.61 1.54 1.27 1.19 1.35 1.31 1.17 1.01 0.97 0.96 0.96 1.06 1.16 1.16 1.16 1.00 0.85 0.64 0.47 0.50 0.64 1.07 1.36 1.51 1.44 1.30 1.31 1.19 0.97 0.92 0.89 0.83 0.81 0.85 0.87
1.72 1.76 1.96 2.06 2.04 2.13 2.10 1.91 2.04 2.03 1.68 1.43 1.63 1.90 1.63 1.43 1.06 0.95 0.98 1.01 1.12 1.25 1.32 1.18 0.98 0.82 0.71 0.63 0.48 0.66 0.89 1.28 1.49 1.38 1.39 1.39 1.09 0.88 0.81 0.80 0.80 0.82 0.93
1.88 1.90 2.01 2.17 2.20 2.26 2.34 2.41 2.34 2.42 2.20 1.82 1.72 1.96 1.81 1.68 1.49 1.08 0.98 1.08 1.21 1.32 1.39 1.41 1.27 1.02 0.93 0.89 0.69 0.53 0.60 0.79 1.20 1.37 1.38 1.41 1.20 0.94 0.80 0.76 0.76 0.77 0.84
2.07 2.13 2.15 2.25 2.28 2.30 2.39 2.49 2.44 2.56 2.61 2.23 1.97 1.75 1.56 1.56 1.65 1.40 1.16 1.12 1.29 1.36 1.39 1.44 1.46 1.29 1.11 1.09 0.94 0.71 0.64 0.67 0.95 1.34 1.49 1.44 1.29 1.13 0.93 0.84 0.78 0.76 0.81
2.18 2.21 2.28 2.43 2.42 2.39 2.36 2.57 2.62 2.70 2.62 2.53 2.38 2.20 2.03 1.78 1.44 1.50 1.50 1.35 1.27 1.20 1.27 1.40 1.55 1.49 1.33 1.24 1.27 0.97 0.69 0.57 0.69 1.19 1.48 1.61 1.47 1.39 1.29 1.14 0.98 0.88 0.83
2.20 2.10 2.03 2.16 2.23 2.26 2.25 2.42 2.60 2.72 2.71 2.72 2.62 2.32 2.24 2.11 1.75 1.68 1.55 1.43 1.43 1.26 1.19 1.26 1.33 1.32 1.35 1.31 1.25 1.24 0.91 0.65 0.56 0.86 1.26 1.41 1.50 1.56 1.57 1.52 1.32 1.14 1.00
2.02 2.05 1.95 1.95 1.98 1.93 1.97 2.08 2.15 2.23 2.37 2.52 2.43 2.20 2.15 2.00 1.97 1.97 1.84 1.60 1.42 1.22 1.22 1.20 1.20 1.17 1.17 1.20 1.29 1.41 1.05 0.74 0.56 0.61 0.90 1.06 1.15 1.35 1.54 1.65 1.59 1.46 1.35
1.72 1.80 1.80 1.75 1.79 1.83 1.84 1.91 1.92 1.93 1.96 2.03 2.03 2.10 2.14 2.01 1.95 1.87 1.86 1.99 1.74 1.50 1.37 1.25 1.23 1.21 1.15 1.15 1.33 1.41 1.08 0.86 0.64 0.56 0.56 0.68 0.81 1.01 1.25 1.48 1.61 1.69 1.65
1.28 1.34 1.44 1.51 1.61 1.66 1.72 1.85 1.91 1.91 1.86 1.84 1.94 1.99 1.93 1.92 1.90 1.79 1.74 1.84 1.90 1.76 1.64 1.48 1.33 1.24 1.26 1.21 1.32 1.15 1.08 0.97 0.77 0.68 0.59 0.53 0.56 0.66 0.80 1.05 1.23 1.29 1.38
0.94 1.00 1.11 1.28 1.50 1.62 1.66 1.73 1.78 1.86 1.90 1.85 1.92 2.02 2.02 2.03 2.06 1.98 1.84 1.79 1.73 1.76 1.69 1.47 1.28 1.18 1.31 1.20 1.31 1.13 1.10 1.21 0.97 0.80 0.72 0.65 0.59 0.57 0.58 0.69 0.83 0.86 0.89
0.78 0.89 0.95 1.09 1.25 1.43 1.61 1.76 1.77 1.76 1.80 1.78 1.72 1.80 1.91 2.02 2.14 2.15 2.12 1.98 1.84 1.81 1.72 1.57 1.36 1.22 1.34 1.39 1.32 1.27 1.17 1.09 1.03 0.94 0.84 0.82 0.74 0.62 0.61 0.65 0.74 0.76 0.75
0.62 0.71 0.84 1.05 1.16 1.25 1.30 1.38 1.46 1.50 1.52 1.57 1.55 1.52 1.60 1.72 1.87 2.01 2.09 2.03 2.02 1.93 1.83 1.79 1.61 1.36 1.25 1.32 1.36 1.43 1.35 1.16 1.08 1.12 1.04 0.95 0.90 0.76 0.68 0.64 0.68 0.70 0.68
0.61 0.66 0.80 0.95 1.01 1.06 1.10 1.12 1.22 1.31 1.31 1.30 1.34 1.31 1.33 1.43 1.57 1.70 1.78 1.86 1.97 2.01 2.00 1.91 1.82 1.63 1.39 1.39 1.43 1.42 1.43 1.51 1.28 1.18 1.18 1.15 1.08 1.00 0.93 0.83 0.76 0.72 0.67
0.62 0.69 0.84 0.94 0.95 0.91 1.00 1.03 1.08 1.12 1.09 1.04 1.07 1.08 1.13 1.17 1.24 1.37 1.51 1.71 1.91 2.02 2.08 2.08 1.98 1.75 1.57 1.54 1.52 1.50 1.55 1.61 1.59 1.37 1.27 1.20 1.25 1.19 1.08 1.00 0.92 0.84 0.77
0.64 0.71 0.76 0.87 0.92 0.90 0.93 0.99 0.98 0.93 0.92 0.92 0.87 0.78 0.80 0.86 0.87 0.96 1.01 1.30 1.55 1.77 1.91 1.99 1.96 1.82 1.60 1.49 1.38 1.42 1.54 1.70 1.78 1.72 1.62 1.35 1.28 1.23 1.18 1.14 1.06 0.97 0.88
0.53 0.58 0.64 0.80 0.91 0.82 0.93 0.92 0.85 0.78 0.75 0.79 0.77 0.69 0.67 0.71 0.63 0.59 0.63 0.85 1.14 1.35 1.54 1.72 1.78 1.66 1.52 1.44 1.48 1.49 1.48 1.53 1.56 1.49 1.48 1.49 1.41 1.31 1.22 1.17 1.19 1.18 1.09
0.47 0.52 0.56 0.73 0.83 0.91 0.85 0.70 0.74 0.74 0.74 0.77 0.79 0.81 0.73 0.69 0.76 0.68 0.62 0.69 0.78 0.89 1.05 1.31 1.53 1.52 1.62 1.54 1.45 1.39 1.40 1.43 1.44 1.50 1.50 1.50 1.40 1.30 1.18 1.14 1.28 1.23 1.22
0.44 0.49 0.55 0.59 0.67 0.80 0.74 0.59 0.63 0.63 0.74 0.81 0.84 0.93 0.94 0.88 0.85 0.92 0.88 0.88 0.85 0.78 0.84 0.77 0.98 1.36 1.50 1.55 1.50 1.52 1.60 1.53 1.41 1.45 1.47 1.48 1.41 1.30 1.16 1.07 1.17 1.10 1.04
0.48 0.50 0.55 0.58 0.64 0.68 0.64 0.57 0.60 0.67 0.80 0.82 0.79 0.90 0.94 0.88 0.92 0.98 1.11 1.17 1.09 0.94 1.05 1.06 0.98 1.08 1.22 1.28 1.39 1.48 1.53 1.45 1.40 1.33 1.24 1.21 1.17 1.20 1.24 1.16 1.12 1.16 1.06
0.47 0.48 0.47 0.47 0.52 0.55 0.60 0.50 0.61 0.73 0.78 0.80 0.81 0.87 1.01 0.93 0.90 0.88 0.97 1.12 1.11 0.98 0.86 0.89 0.86 0.76 0.71 0.82 1.01 1.17 1.44 1.54 1.47 1.36 1.19 1.13 1.15 1.12 1.15 1.09 1.00 1.04 1.02